Location: Czekanka
(50.4925°N, 19.2643°E)
Time: 11:50:15
(UTC+00:00)

FENGYUN 1C DEB - Pass Details

Date: 23 November 2025
Orbit: 800 x 866 km, 98.6° (Epoch: 04 December)

Event Time Altitude Azimuth Distance (km) Brightness Sun altitude
Rises 04:03:45 0° 10° (N) 3,330 ? -19.6°
Reaches altitude 10° 04:06:11 10° 4° (N) 2,391 ? -19.2°
Maximum altitude 04:11:07 43° 294° (WNW) 1,118 ? -18.4°
Enters shadow 04:16:02 10° 225° (SW) 2,374 ? -17.7°
